Regional Weather Roundup
Issued by NWS

Home | Current Version | Previous Version | Graphics & Text | Print | Product List | Glossary On
Versions: 1 2 3 4 5 6 7 8 9 10 11 12 13 14 15 16 17 18 19 20 21 22 23 24 25 26 27 28 29 30 31 32 33 34 35 36 37 38 39 40 41 42 43 44 45 46 47 48 49 50
000
ASUS43 KTOP 010459
RWRKS

WEATHER ROUNDUP FOR KANSAS
NATIONAL WEATHER SERVICE GOODLAND KS
1200 AM CDT TUE SEP 01 2015

NOTE:  "FAIR" INDICATES FEW OR NO CLOUDS BELOW 12,000 FEET WITH NO
SIGNIFICANT WEATHER AND/OR OBSTRUCTIONS TO VISIBILITY.

KSZ001>006-013>018-027>032-041>047-010600-
NORTHWEST KANSAS

CITY           SKY/WX    TMP DP  RH WIND       PRES   REMARKS
GOODLAND       CLOUDY    71  58  63 NW16G23   30.02S
HAYS           CLEAR     75  54  46 S9        29.94R
HILL CITY      PTCLDY    79  54  41 S10       29.93R
RUSSELL        CLEAR     76  56  49 S10       29.92S
$$

KSZ061>065-074>080-084>089-010600-
SOUTHWEST KANSAS

CITY           SKY/WX    TMP DP  RH WIND       PRES   REMARKS
DODGE CITY     CLEAR     75  52  44 S15       29.98R
ELKHART          N/A     72  51  47 S9          N/A
GARDEN CITY    CLEAR     74  54  49 S10       29.96R
GREAT BEND     CLEAR     73  55  53 S9        29.95R
LIBERAL        PTCLDY    72  48  43 S9        29.99R
$$

KSZ066>073-081>083-090>101-010600-
SOUTHEAST KANSAS

CITY           SKY/WX    TMP DP  RH WIND       PRES   REMARKS
CHANUTE        PTCLDY    76  70  82 SE8       30.01R
COFFEYVILLE    CLEAR     77  70  79 S9        30.00R
HUTCHINSON     CLEAR     75  62  64 SE9       29.97R
NEWTON         CLEAR     73  63  68 S9        30.01R
PARSONS        CLEAR     76  70  82 S7        30.01S
WICHITA INTL   CLEAR     76  66  71 S10       29.97R
WICHITA JABRA  CLEAR     76  67  73 S10       29.98R
WINFIELD       CLEAR     79  66  64 S15       29.99S
$$

KSZ007>012-019>026-033>040-048>060-102>105-010600-
NORTHEAST KANSAS

CITY           SKY/WX    TMP DP  RH WIND       PRES   REMARKS
CONCORDIA      CLEAR     75  65  70 S15       29.92S
EMPORIA        CLEAR     75  69  81 S15       29.98S
LAWRENCE       CLEAR     76  70  82 S7        29.98R
MANHATTAN      CLEAR     79  68  69 S8        29.94R
OLATHE IND     CLEAR     74  69  85 S7        30.01R
OLATHE EXE     CLEAR     74  69  85 S6        30.00R
SALINA         CLEAR     78  64  61 S14       29.94R
TOPEKA BILLARD CLEAR     78  69  73 S10       29.97R
TOPEKA FORBES  CLEAR     78  69  73 S9        29.98R
$$



USA.gov is the U.S. government's official web portal to all federal, state and local government web resources and services.